Sheldon, IA

6:55 PM CDT on April 30, 2017 (GMT -0500)
Sheldon Municipal

Weather History for KSHL - November, 2013

Change the Weather History Date:

Sunday, November 3, 2013

  Actual Average Record
Temperature  
Mean Temperature 44 °F -  
Max Temperature 57 °F 47 °F 78 °F (2008)
Min Temperature 32 °F 29 °F -2 °F (1991)
Degree Days  
Heating Degree Days 20    
Moisture  
Dew Point 33 °F    
Average Humidity 66    
Maximum Humidity 100    
Minimum Humidity 33    
Precipitation  
Precipitation 0.00 in - - ()
Sea Level Pressure  
Sea Level Pressure 29.85 in    
Wind  
Wind Speed 12 mph (SSE)    
Max Wind Speed 31 mph    
Max Gust Speed 45 mph    
Visibility 10 miles    
Events      
Averages and records for this station are not official NWS values.
T = Trace of Precipitation, MM = Missing Value Source: NWS Daily Summary

Daily Weather History Graph

Daily Weather History Graph

Search for Another Location

Airport or City:

Trip Planner

Search our weather history database for the weather conditions in past years. The results will help you decide how hot, cold, wet, or windy it might be!

Date:

Astronomy

Nov. 03, 2013 Rise Set
Actual Time 7:01 AM CST 5:12 PM CST
Civil Twilight 6:31 AM CST 5:41 PM CST
Nautical Twilight 5:57 AM CST 6:15 PM CST
Astronomical Twilight 5:24 AM CST 6:48 PM CST
Moon 7:06 AM CST (11/3) 5:26 PM CST (11/3)
Length of Visible Light 11h 10m
Length of Day
10h 10m
New Moon, 0% of the Moon is Illuminated
Nov 3
New Moon
Nov 9
First Quarter
Nov 17
Full
Nov 25
Last Quarter
Dec 2
New

Hourly Weather History & Observations

Time (CST) Temp. Windchill Dew Point Humidity Pressure Visibility Wind Dir Wind Speed Gust Speed Precip Events Conditions
12:15 AM 33.8 °F 29.6 °F 33.8 °F 100% 30.03 in 10.0 mi SSE 4.6 mph - N/A   Clear
12:35 AM 32.0 °F - 32.0 °F 100% 30.02 in 10.0 mi Calm Calm - N/A   Clear
12:55 AM 32.0 °F 28.7 °F 32.0 °F 100% 30.02 in - ESE 3.5 mph - N/A   Unknown
1:15 AM 32.0 °F - 32.0 °F 100% 30.02 in 10.0 mi Calm Calm - N/A   Clear
1:35 AM 32.0 °F 28.7 °F 32.0 °F 100% 30.02 in 10.0 mi ESE 3.5 mph - N/A   Clear
1:55 AM 33.8 °F 29.6 °F 33.8 °F 100% 30.03 in 10.0 mi SSE 4.6 mph - N/A   Clear
1:15 AM 33.8 °F 29.6 °F 33.8 °F 100% 30.02 in 10.0 mi SSE 4.6 mph - N/A   Clear
1:35 AM 33.8 °F 28.6 °F 33.8 °F 100% 30.02 in 10.0 mi SSE 5.8 mph - N/A   Clear
1:55 AM 35.6 °F 29.2 °F 35.6 °F 100% 30.01 in 10.0 mi SSE 8.1 mph - N/A   Clear
2:15 AM 35.6 °F 29.2 °F 35.6 °F 100% 30.01 in 10.0 mi SSE 8.1 mph - N/A   Clear
2:35 AM 35.6 °F 28.6 °F 35.6 °F 100% 30.00 in 10.0 mi SSE 9.2 mph - N/A   Clear
2:55 AM 35.6 °F 29.2 °F 35.6 °F 100% 29.99 in 10.0 mi SSE 8.1 mph - N/A   Clear
3:15 AM 35.6 °F 27.5 °F 35.6 °F 100% 29.98 in 10.0 mi SSE 11.5 mph - N/A   Clear
3:35 AM 35.6 °F 28.6 °F 35.6 °F 100% 29.98 in 10.0 mi SSE 9.2 mph - N/A   Clear
3:55 AM 37.4 °F 29.8 °F 35.6 °F 93% 29.97 in 10.0 mi SSE 11.5 mph - N/A   Clear
4:15 AM 37.4 °F 29.3 °F 35.6 °F 93% 29.96 in 10.0 mi SSE 12.7 mph 20.7 mph N/A   Clear
4:35 AM 37.4 °F 29.8 °F 35.6 °F 93% 29.96 in 10.0 mi SSE 11.5 mph 18.4 mph N/A   Clear
4:55 AM 35.6 °F 28.0 °F 35.6 °F 100% 29.95 in 10.0 mi SSE 10.4 mph - N/A   Clear
5:15 AM 37.4 °F 29.3 °F 35.6 °F 93% 29.95 in 10.0 mi SSE 12.7 mph - N/A   Clear
5:35 AM 37.4 °F 29.3 °F 35.6 °F 93% 29.94 in 10.0 mi SSE 12.7 mph 18.4 mph N/A   Clear
5:55 AM 37.4 °F 28.9 °F 35.6 °F 93% 29.93 in 10.0 mi SSE 13.8 mph 20.7 mph N/A   Clear
6:15 AM 37.4 °F 28.5 °F 35.6 °F 93% 29.92 in 10.0 mi SSE 15.0 mph - N/A   Clear
6:35 AM 39.2 °F 31.2 °F 35.6 °F 87% 29.92 in 10.0 mi SSE 13.8 mph 23.0 mph N/A   Clear
6:55 AM 39.2 °F 31.6 °F 33.8 °F 81% 29.92 in 10.0 mi SSE 12.7 mph 20.7 mph N/A   Clear
7:15 AM 39.2 °F 30.2 °F 33.8 °F 81% 29.92 in 10.0 mi SSE 17.3 mph 26.5 mph N/A   Clear
7:35 AM 39.2 °F 30.5 °F 33.8 °F 81% 29.92 in 10.0 mi SSE 16.1 mph 25.3 mph N/A   Clear
7:55 AM 41.0 °F 32.8 °F 33.8 °F 76% 29.92 in 10.0 mi SSE 16.1 mph 26.5 mph N/A   Clear
8:15 AM 42.8 °F 35.4 °F 33.8 °F 70% 29.92 in 10.0 mi SSE 15.0 mph 26.5 mph N/A   Clear
8:35 AM 44.6 °F 37.4 °F 33.8 °F 66% 29.91 in 10.0 mi SSE 16.1 mph 25.3 mph N/A   Clear
8:55 AM 46.4 °F 39.2 °F 32.0 °F 57% 29.90 in 10.0 mi SSE 18.4 mph 31.1 mph N/A   Clear
9:15 AM 46.4 °F 39.5 °F 32.0 °F 57% 29.90 in 10.0 mi SSE 17.3 mph 32.2 mph N/A   Clear
9:35 AM 48.2 °F - 32.0 °F 54% 29.88 in 10.0 mi SSE 21.9 mph 31.1 mph N/A   Clear
9:55 AM 50.0 °F - 32.0 °F 50% 29.87 in 10.0 mi SSE 19.6 mph 27.6 mph N/A   Clear
10:15 AM 51.8 °F - 30.2 °F 44% 29.85 in 10.0 mi SSE 24.2 mph 36.8 mph N/A   Clear
10:35 AM 51.8 °F - 30.2 °F 44% 29.83 in 10.0 mi SSE 24.2 mph 41.4 mph N/A   Clear
10:55 AM 53.6 °F - 28.4 °F 38% 29.82 in 10.0 mi SSE 31.1 mph 43.7 mph N/A   Clear
11:15 AM 53.6 °F - 28.4 °F 38% 29.81 in 10.0 mi SSE 20.7 mph 39.1 mph N/A   Clear
11:35 AM 53.6 °F - 26.6 °F 35% 29.80 in 10.0 mi SSE 28.8 mph 39.1 mph N/A   Clear
11:55 AM 55.4 °F - 28.4 °F 36% 29.79 in 10.0 mi SSE 27.6 mph 39.1 mph N/A   Clear
12:15 PM 55.4 °F - 28.4 °F 36% 29.78 in 10.0 mi South 24.2 mph 33.4 mph N/A   Clear
12:35 PM 57.2 °F - 28.4 °F 33% 29.77 in 10.0 mi South 28.8 mph 41.4 mph N/A   Clear
12:55 PM 55.4 °F - 28.4 °F 36% 29.76 in 10.0 mi South 24.2 mph 40.3 mph N/A   Clear
1:15 PM 57.2 °F - 30.2 °F 36% 29.75 in 10.0 mi South 26.5 mph 38.0 mph N/A   Clear
1:35 PM 57.2 °F - 30.2 °F 36% 29.75 in 10.0 mi South 23.0 mph 44.9 mph N/A   Clear
1:55 PM 55.4 °F - 30.2 °F 38% 29.75 in 10.0 mi South 21.9 mph 33.4 mph N/A   Clear
2:15 PM 55.4 °F - 30.2 °F 38% 29.75 in 10.0 mi South 23.0 mph 33.4 mph N/A   Clear
2:35 PM 55.4 °F - 30.2 °F 38% 29.74 in 10.0 mi South 25.3 mph 38.0 mph N/A   Clear
2:55 PM 55.4 °F - 30.2 °F 38% 29.74 in 10.0 mi South 23.0 mph 33.4 mph N/A   Clear
3:15 PM 55.4 °F - 32.0 °F 41% 29.73 in 10.0 mi South 23.0 mph 34.5 mph N/A   Clear
3:35 PM 55.4 °F - 32.0 °F 41% 29.73 in 10.0 mi SSE 20.7 mph 31.1 mph N/A   Clear
3:55 PM 55.4 °F - 32.0 °F 41% 29.72 in 10.0 mi South 25.3 mph 39.1 mph N/A   Clear
4:15 PM 53.6 °F - 32.0 °F 44% 29.72 in 10.0 mi SSE 18.4 mph 35.7 mph N/A   Clear
4:35 PM 53.6 °F - 32.0 °F 44% 29.71 in 10.0 mi SSE 15.0 mph 27.6 mph N/A   Clear
4:55 PM 53.6 °F - 32.0 °F 44% 29.72 in 10.0 mi SSE 17.3 mph 28.8 mph N/A   Clear
5:15 PM 51.8 °F - 32.0 °F 47% 29.73 in 10.0 mi SSE 13.8 mph 29.9 mph N/A   Clear
5:35 PM 51.8 °F - 32.0 °F 47% 29.74 in 10.0 mi SSE 15.0 mph 25.3 mph N/A   Clear
5:55 PM 51.8 °F - 33.8 °F 50% 29.75 in 10.0 mi SSE 11.5 mph 23.0 mph N/A   Clear
6:15 PM 50.0 °F - 33.8 °F 54% 29.74 in 10.0 mi SSE 15.0 mph 21.9 mph N/A   Clear
6:35 PM 50.0 °F - 33.8 °F 54% 29.75 in 10.0 mi SSE 12.7 mph 18.4 mph N/A   Clear
6:55 PM 50.0 °F - 33.8 °F 54% 29.75 in 10.0 mi SSE 11.5 mph 19.6 mph N/A   Partly Cloudy
7:15 PM 48.2 °F - 33.8 °F 58% 29.75 in 10.0 mi SSE 11.5 mph 19.6 mph N/A   Mostly Cloudy
7:35 PM 48.2 °F - 33.8 °F 58% 29.75 in 10.0 mi SSE 11.5 mph 19.6 mph N/A   Overcast
7:55 PM 48.2 °F - 33.8 °F 58% 29.75 in 10.0 mi SSE 12.7 mph 19.6 mph N/A   Overcast
8:15 PM 48.2 °F - 35.6 °F 62% 29.75 in 10.0 mi SSE 13.8 mph 20.7 mph N/A   Overcast
8:35 PM 48.2 °F - 35.6 °F 62% 29.74 in 10.0 mi SSE 15.0 mph 23.0 mph N/A   Overcast
8:55 PM 48.2 °F - 35.6 °F 62% 29.74 in 10.0 mi SSE 13.8 mph 24.2 mph N/A   Overcast
9:15 PM 48.2 °F - 35.6 °F 62% 29.75 in 10.0 mi SSE 15.0 mph 21.9 mph N/A   Overcast
9:35 PM 50.0 °F - 35.6 °F 58% 29.75 in 10.0 mi SSE 17.3 mph 26.5 mph N/A   Overcast
9:55 PM 50.0 °F - 35.6 °F 58% 29.76 in 10.0 mi SSE 17.3 mph 24.2 mph N/A   Overcast
10:15 PM 50.0 °F - 35.6 °F 58% 29.76 in 10.0 mi SSE 17.3 mph 26.5 mph N/A   Overcast
10:35 PM 48.2 °F - 35.6 °F 62% 29.75 in 10.0 mi SSE 15.0 mph - N/A   Overcast
10:55 PM 50.0 °F - 37.4 °F 62% 29.75 in 10.0 mi SSE 12.7 mph 23.0 mph N/A   Mostly Cloudy